Simultaneous Nadir Overpasses (SNOs) Predictions

Prediction of SNOs between GOES-17 and LANDSAT-8 Satellite Orbit:

Table of predicted SNOs for the next 14.0 days since TLE Epoch: 5/25/2024
Index Date Time (GOES-17) GOES-17 Lat,Lon LANDSAT-8 Lat,Lon Distance(km) Time Diff (sec)
1 05/25/2024 17:09:05 -0.03,-104.72 -0.02,-104.77 5.90 80
2 05/27/2024 16:59:34 -0.04,-104.71 -0.68,-101.82 329.09 80
3 05/28/2024 05:20:58 0.04,-104.70 -0.44,-107.02 262.91 80
4 05/30/2024 05:06:06 0.05,-104.70 0.19,-104.06 72.51 80
5 06/01/2024 04:53:54 0.05,-104.70 0.84,-101.11 408.51 80
6 06/01/2024 17:15:09 -0.05,-104.71 0.26,-106.27 176.52 80
7 06/03/2024 17:02:56 -0.05,-104.71 -0.36,-103.31 159.87 80
8 06/04/2024 05:26:59 0.04,-104.70 -0.79,-108.49 431.50 80
9 06/05/2024 16:50:43 -0.05,-104.71 -1.00,-100.35 496.12 80
10 06/06/2024 05:14:46 0.05,-104.70 -0.13,-105.54 95.28 80
